Location: Rounton
(54.4000°N, 1.3500°W)
Time: 02:30:50
(UTC+00:00)

Altair - Pass Details

Date: 02 December 2021
Orbit: 1501 x 1683 km, 47.2° (Epoch: 19 January)

Event Time Altitude Azimuth Distance (km) Brightness Sun altitude
Rises 16:08:20 0° 219° (SW) 4,759 11.9 -3.6°
Reaches altitude 10° 16:11:45 10° 211° (SSW) 3,750 10.8 -4.0°
Maximum altitude 16:20:03 36° 149° (SSE) 2,234 8.4 -5.1°
Drops below altitude 10° 16:28:09 10° 87° (E) 3,666 8.9 -6.1°
Enters shadow 16:30:07 - 82° (E) 4,241 9.2 -6.3°
